Volver al catálogo

COSMOS 1818 COOLANT

LostLEO
NORAD 50785·DEBRIS·🇷🇺 Russia

Lanzado Feb 1, 1987 desde Baikonur Cosmodrome

Loading…

Próximos Pases (próximas 24 horas)

TLE

ObsoletoSource: Space-Track

Época: Oct 22, 2022, 12:53 UTC

1 50785U 87011BA  22295.53690334  .00000505  00000-0  21294-3 0  9996
2 50785  65.0102 339.2273 0014625 265.8154  94.1261 14.34761780533408

Sigue COSMOS 1818 COOLANT en tiempo real con AllMySat

Download on the App Store